TimeEST,TemperatureF,Dew PointF,Humidity,Sea Level PressureIn,VisibilityMPH,Wind Direction,Wind SpeedMPH,Gust SpeedMPH,PrecipitationIn,Events,Conditions,WindDirDegrees,DateUTC
12:25 AM,37.4,37.4,100,30.15,1.8,Calm,Calm,-,N/A,,Mostly Cloudy,0,2013-11-03 04:25:00
12:28 AM,39.2,39.2,100,30.15,0.8,Calm,Calm,-,N/A,,Mostly Cloudy,0,2013-11-03 04:28:00
12:43 AM,39.2,39.2,100,30.14,2.5,Calm,Calm,-,N/A,,Mostly Cloudy,0,2013-11-03 04:43:00
12:48 AM,37.4,37.4,100,30.14,2.5,Calm,Calm,-,N/A,,Mostly Cloudy,0,2013-11-03 04:48:00
12:52 AM,37.4,37.4,100,30.14,0.8,Calm,Calm,-,N/A,,Mostly Cloudy,0,2013-11-03 04:52:00
12:54 AM,37.9,37.9,100,30.15,0.8,Calm,Calm,-,N/A,,Mostly Cloudy,0,2013-11-03 04:54:00
1:14 AM,37.4,37.4,100,30.14,2.0,Calm,Calm,-,N/A,,Mostly Cloudy,0,2013-11-03 05:14:00
1:22 AM,37.4,37.4,100,30.14,6.0,WSW,3.5,-,N/A,,Mostly Cloudy,250,2013-11-03 05:22:00
1:44 AM,37.4,37.4,100,30.14,1.5,Calm,Calm,-,N/A,,Clear,0,2013-11-03 05:44:00
1:48 AM,37.4,37.4,100,30.14,0.5,Calm,Calm,-,N/A,Fog,Fog,0,2013-11-03 05:48:00
1:54 AM,36.0,36.0,100,30.15,0.2,Calm,Calm,-,N/A,Fog,Fog,0,2013-11-03 05:54:00
1:09 AM,35.6,35.6,100,30.14,0.2,Calm,Calm,-,N/A,Fog,Fog,0,2013-11-03 06:09:00
1:37 AM,33.8,33.8,100,30.15,0.2,Calm,Calm,-,N/A,Fog,Fog,0,2013-11-03 06:37:00
1:54 AM,34.0,34.0,100,30.17,0.2,Calm,Calm,-,N/A,Fog,Fog,0,2013-11-03 06:54:00
2:18 AM,33.8,33.8,100,30.17,0.2,Calm,Calm,-,N/A,Fog,Fog,0,2013-11-03 07:18:00
2:43 AM,33.8,33.8,100,30.17,0.5,Calm,Calm,-,N/A,Fog,Fog,0,2013-11-03 07:43:00
2:54 AM,32.0,32.0,100,30.19,0.5,Calm,Calm,-,N/A,Fog,Fog,0,2013-11-03 07:54:00
2:58 AM,32.0,32.0,100,30.18,0.2,Calm,Calm,-,N/A,Fog,Fog,0,2013-11-03 07:58:00
3:43 AM,30.2,30.2,100,30.20,0.5,Calm,Calm,-,N/A,Fog,Light Freezing Fog,0,2013-11-03 08:43:00
3:54 AM,30.9,30.9,100,30.22,0.2,Calm,Calm,-,N/A,Fog,Light Freezing Fog,0,2013-11-03 08:54:00
4:10 AM,30.2,30.2,100,30.21,0.8,Calm,Calm,-,N/A,,Mist,0,2013-11-03 09:10:00
4:38 AM,30.2,30.2,100,30.21,0.2,Calm,Calm,-,N/A,Fog,Light Freezing Fog,0,2013-11-03 09:38:00
4:54 AM,30.9,30.0,96,30.23,0.2,Calm,Calm,-,N/A,Fog,Light Freezing Fog,0,2013-11-03 09:54:00
5:15 AM,30.2,28.4,93,30.23,0.8,Calm,Calm,-,N/A,,Mist,0,2013-11-03 10:15:00
5:35 AM,30.2,30.2,100,30.23,0.2,Calm,Calm,-,N/A,Fog,Light Freezing Fog,0,2013-11-03 10:35:00
5:54 AM,28.9,28.9,100,30.25,0.2,Calm,Calm,-,N/A,Fog,Light Freezing Fog,0,2013-11-03 10:54:00
6:54 AM,28.9,28.9,100,30.27,0.2,Calm,Calm,-,N/A,Fog,Light Freezing Fog,0,2013-11-03 11:54:00
7:54 AM,28.9,28.9,100,30.30,0.2,Calm,Calm,-,N/A,Fog,Light Freezing Fog,0,2013-11-03 12:54:00
8:52 AM,30.2,30.2,100,30.30,0.5,Calm,Calm,-,N/A,Fog,Light Freezing Fog,0,2013-11-03 13:52:00
8:54 AM,30.9,30.9,100,30.32,0.5,Calm,Calm,-,N/A,Fog,Light Freezing Fog,0,2013-11-03 13:54:00
9:03 AM,32.0,32.0,100,30.30,0.5,Calm,Calm,-,N/A,Fog,Fog,0,2013-11-03 14:03:00
9:11 AM,33.8,33.8,100,30.30,0.2,Calm,Calm,-,N/A,Fog,Fog,0,2013-11-03 14:11:00
9:23 AM,35.6,35.6,100,30.31,1.0,Calm,Calm,-,N/A,,Mist,0,2013-11-03 14:23:00
9:27 AM,35.6,35.6,100,30.31,2.5,Calm,Calm,-,N/A,,Clear,0,2013-11-03 14:27:00
9:38 AM,37.4,37.4,100,30.32,7.0,Calm,Calm,-,N/A,,Clear,0,2013-11-03 14:38:00
9:54 AM,37.9,37.9,100,30.34,9.0,Calm,Calm,-,N/A,,Clear,0,2013-11-03 14:54:00
10:54 AM,45.0,39.0,80,30.34,10.0,East,4.6,-,N/A,,Clear,100,2013-11-03 15:54:00
11:51 AM,48.2,39.2,71,30.32,10.0,ESE,5.8,-,N/A,,Mostly Cloudy,110,2013-11-03 16:51:00
11:54 AM,46.9,39.0,74,30.33,10.0,ESE,5.8,-,N/A,,Mostly Cloudy,110,2013-11-03 16:54:00
12:18 PM,48.2,39.2,71,30.31,10.0,SSE,6.9,-,N/A,,Scattered Clouds,150,2013-11-03 17:18:00
12:54 PM,48.0,37.0,66,30.30,10.0,SE,4.6,-,N/A,,Partly Cloudy,140,2013-11-03 17:54:00
1:54 PM,51.1,36.0,56,30.29,10.0,SE,6.9,-,N/A,,Scattered Clouds,130,2013-11-03 18:54:00
2:54 PM,51.1,35.1,54,30.28,10.0,East,4.6,-,N/A,,Mostly Cloudy,100,2013-11-03 19:54:00
3:54 PM,51.1,33.1,50,30.28,10.0,South,6.9,-,N/A,,Partly Cloudy,170,2013-11-03 20:54:00
4:54 PM,50.0,35.1,57,30.28,10.0,SE,6.9,-,N/A,,Mostly Cloudy,130,2013-11-03 21:54:00
5:54 PM,45.0,34.0,65,30.28,10.0,ESE,5.8,-,N/A,,Scattered Clouds,120,2013-11-03 22:54:00
6:54 PM,39.9,33.1,77,30.29,10.0,ESE,6.9,-,N/A,,Clear,110,2013-11-03 23:54:00
7:54 PM,37.9,33.1,83,30.30,10.0,East,8.1,-,N/A,,Clear,100,2013-11-04 00:54:00
8:54 PM,37.9,33.1,83,30.31,10.0,ESE,5.8,-,N/A,,Clear,110,2013-11-04 01:54:00
9:54 PM,37.0,33.1,86,30.31,10.0,East,6.9,-,N/A,,Clear,100,2013-11-04 02:54:00
10:54 PM,39.9,34.0,79,30.31,10.0,ESE,5.8,-,N/A,,Clear,120,2013-11-04 03:54:00